Location: New Greens
(51.7702°N, 0.3379°W)
Time: 10:12:44
(UTC+00:00)

Envisat - Visible Passes

Search period start: 24 January 2019 00:00
Search period end: 03 February 2019 00:00
Orbit: 764 x 766 km, 98.2° (Epoch: 24 January)

Date Brightness Start Highest point End Pass type
(mag) Time Alt. Az. Time Alt. Az. Time Alt. Az.
24 Jan 6.5 06:00:27 10° ENE 06:01:15 10° E 06:02:04 10° E visible
24 Jan 3.9 17:18:32 10° ESE 17:22:40 26° ENE 17:26:49 10° N visible
24 Jan 3.6 18:56:22 10° S 19:01:22 58° W 19:06:25 10° NNW visible
25 Jan 5.0 06:59:46 10° NNE 07:04:22 33° E 07:08:56 10° SSE visible
25 Jan 2.9 18:19:31 10° SSE 18:24:35 74° ENE 18:29:41 10° NNW visible
25 Jan 5.5 20:00:36 10° SW 20:04:11 19° W 20:07:47 10° NW visible
26 Jan 5.9 06:23:53 10° NE 06:27:13 17° E 06:30:32 10° SE visible
26 Jan 3.4 17:43:18 10° SE 17:48:00 39° ENE 17:52:42 10° N visible
26 Jan 4.5 19:22:23 10° SSW 19:27:03 36° W 19:31:46 10° NNW visible
27 Jan 3.2 18:45:04 10° S 18:50:08 71° WSW 18:55:15 10° NNW visible
27 Jan 6.1 20:28:22 10° WSW 20:30:07 12° W 20:31:52 10° WNW visible
28 Jan 5.4 06:48:44 10° NE 06:53:04 27° E 06:57:22 10° SSE visible
28 Jan 3.0 18:08:25 10° SSE 18:13:24 61° ENE 18:18:26 10° N visible
28 Jan 5.3 19:48:50 10° SW 19:52:51 23° W 19:56:53 10° NW visible
29 Jan 6.1 06:13:11 10° NE 06:15:51 14° E 06:18:31 10° ESE visible
29 Jan 3.7 17:32:23 10° SE 17:36:52 33° ENE 17:41:22 10° N visible
29 Jan 4.1 19:10:56 10° S 19:15:47 44° W 19:20:40 10° NNW visible
30 Jan 3.0 18:33:50 10° SSE 18:38:55 86° WSW 18:44:03 10° NNW visible
30 Jan 5.9 20:16:00 10° WSW 20:18:44 14° W 20:21:29 10° NW visible
31 Jan 5.7 06:37:45 10° NE 06:41:45 23° E 06:45:43 10° SE visible
31 Jan 3.2 17:57:21 10° SE 18:02:15 50° ENE 18:07:09 10° N visible
31 Jan 5.0 19:37:11 10° SSW 19:41:31 28° W 19:45:53 10° NW visible
01 Feb 6.3 06:02:51 10° ENE 06:04:28 11° E 06:06:04 10° ESE visible
01 Feb 3.9 17:21:30 10° ESE 17:25:45 28° ENE 17:30:02 10° N visible
01 Feb 3.7 18:59:33 10° S 19:04:31 54° W 19:09:32 10° NNW visible
02 Feb 2.9 18:22:38 10° SSE 18:27:43 79° ENE 18:32:49 10° NNW visible
02 Feb 5.7 20:03:59 10° SW 20:07:22 18° W 20:10:46 10° NW visible
